Regional Weather Roundup
Issued by NWS

Home | Current Version | Previous Version | Graphics & Text | Print | Product List | Glossary On
Versions: 1 2 3 4 5 6 7 8 9 10 11 12 13 14 15 16 17 18 19 20 21 22 23 24 25 26 27 28 29 30 31 32 33 34 35 36 37 38 39 40 41 42 43 44 45 46 47 48 49 50
000
ASUS43 KLMK 230110
RWRKY
KENTUCKY REGIONAL WEATHER ROUNDUP
NATIONAL WEATHER SERVICE LOUISVILLE KY
900 PM EDT SAT JUL 22 2017

NOTE "FAIR" INDICATES FEW OR NO CLOUDS BELOW 12,000 FEET
WITH NO SIGNIFICANT WEATHER AND/OR OBSTRUCTIONS TO VISIBILITY.

KYZ001>023-026-027-061>063-070>075-230200-
WESTERN AND SOUTH CENTRAL KENTUCKY

CITY           SKY/WX    TMP DP  RH WIND       PRES   REMARKS
PADUCAH        CLEAR     88  73  61 SW6       29.82F HX  95
HENDERSON      CLEAR     86  75  69 SW6       29.83R HX  95
OWENSBORO      CLEAR     87  76  69 SW6       29.84R HX  97
HOPKINSVILLE   NOT AVBL
BOWLING GREEN  CLEAR     90  74  59 SW7       29.87R HX  99
GLASGOW        CLEAR     84  73  69 CALM      29.89R HX  91
$$

KYZ024-025-028>034-038-045-046-053-230200-
NORTH CENTRAL KENTUCKY

CITY           SKY/WX    TMP DP  RH WIND       PRES   REMARKS
LOUISVILLE/SDF PTCLDY    91  74  57 SW7       29.83R HX 100
LOUISVILLE/LOU CLEAR     91  75  59 SW10      29.84R HX 101
FORT KNOX      NOT AVBL
$$

KYZ035>037-039>044-047>052-055>060-089>105-230200-
NORTHEAST KENTUCKY

CITY           SKY/WX    TMP DP  RH WIND       PRES   REMARKS
LEXINGTON      PTCLDY    85  72  65 SW6       29.87S HX  91
COVINGTON      TSTM      78  76  93 SW9G20    29.84R
FRANKFORT      PTCLDY    87  74  64 SW7       29.85R HX  95
$$

KYZ054-064>069-076>088-106>120-230200-
SOUTHEAST KENTUCKY

CITY           SKY/WX    TMP DP  RH WIND       PRES   REMARKS
JACKSON        PTCLDY    85  72  65 VRB3      29.92R HX  91
LONDON         CLEAR     87  71  58 W6        29.93R HX  93
SOMERSET       PTCLDY    84  70  61 W6        29.92R
MIDDLESBORO    CLEAR     84  75  74 CALM      29.94R HX  91
MONTICELLO     CLEAR     83  75  77 W12       29.93R HX  90
$$





USA.gov is the U.S. government's official web portal to all federal, state and local government web resources and services.